Flag for Germany Weather past 2 weeks in Lutherstadt Eisleben, Saxony-Anhalt, Germany

Now
62 °F

Overcast.


Feels Like: 62 °F
Forecast: 63 / 92 °F
Wind: 2 mph from Northwest

Location: Leipzig-Schkeuditz

Current Time: Aug 5, 2015 at 6:47:17 AM

Latest Report: Aug 5, 2015 at 6:00 AM


Visibility: 19 mi

Pressure: 30.10 "Hg

Humidity: 79%

Dew point: 56 °F

Location of Lutherstadt EislebenLocation

Historic Weather in Lutherstadt Eisleben — Graph

°F

Lutherstadt Eisleben temperature yesterday

Maximum temperature yesterday: 93 °F (at 4:00 PM)
Minimum temperature yesterday: 65 °F (at 6:00 AM)
Average temperature yesterday: 79 °F

Past Weeks' High & Low Weather Summary

 TemperatureHumidityPressure
High93 °F (Aug 4, 4:00 PM)94% (Jul 21, 4:00 AM)30.12 "Hg (Jul 21, 4:00 AM)
Low48 °F (Jul 31, 6:00 AM)24% (Aug 2, 3:00 PM)29.59 "Hg (Jul 27, 2:00 PM)
Average68 °F57%29.90 "Hg
* Reported Jul 21 4:00 AM — Aug 5 4:00 AM, Lutherstadt Eisleben, Weather by CustomWeather, © 2015

Note: Actual official high and low records may vary slightly from our data, if they occured in-between our weather recording intervals... More about our weather records

Advertising

Lutherstadt Eisleben weather history for previous 24 hours

 ConditionsComfort  
Time TempWeatherWind HumidityBarometerVisibility
4:00 AM
Wed, Aug 5
63 °FOvercast.3 mph85%30.09 "Hg16 mi
3:00 AM63 °FOvercast.5 mph85%30.07 "Hg25 mi
2:00 AM64 °FPassing clouds.3 mph89%30.04 "Hg31 mi
1:00 AM65 °FPassing clouds.3 mph89%30.03 "Hg31 mi
12:00 AM66 °FPassing clouds.2 mph89%30.02 "Hg25 mi
10:00 PM
Tue, Aug 4
69 °FOvercast.5 mph80%29.98 "Hg19 mi
9:00 PM75 °FOvercast.7 mph57%29.95 "Hg19 mi
8:00 PM78 °FOvercast.8 mph50%29.90 "Hg16 mi
7:00 PM84 °FOvercast.13 mph37%29.85 "Hg6 mi
6:00 PM90 °FOvercast.5 mph27%29.81 "Hg22 mi
5:00 PM91 °FPartly sunny.3 mph25%29.81 "Hg25 mi
4:00 PM93 °FScattered clouds.5 mph24%29.82 "Hg25 mi
3:00 PM91 °FScattered clouds.5 mph28%29.83 "Hg25 mi
2:00 PM90 °FScattered clouds.5 mph31%29.85 "Hg25 mi
1:00 PM89 °FPassing clouds.6 mph35%29.86 "Hg25 mi
12:00 PM87 °FPassing clouds.6 mph38%29.88 "Hg25 mi
10:00 AM80 °FPassing clouds.3 mph46%29.91 "Hg22 mi
9:00 AM76 °FPassing clouds.3 mph55%29.93 "Hg25 mi
8:00 AM72 °FPassing clouds.3 mph63%29.94 "Hg22 mi
7:00 AM67 °FPassing clouds.1 mph71%29.96 "Hg17 mi
6:00 AM65 °FPassing clouds.2 mph76%29.96 "Hg12 mi
Weather by CustomWeather, © 2015

See weather overviewHow to use our weather pages